Location: Township of Marena
(38.1747°N, 99.6798°W)
Time: 02:24:31
(UTC+00:00)

ADEOS - Pass Details

Date: 26 October 2020
Orbit: 793 x 793 km, 98.9° (Epoch: 24 November)

Event Time Altitude Azimuth Distance (km) Brightness Sun altitude
Rises 10:46:32 0° 19° (NNE) 3,301 7.1 -26.6°
Reaches altitude 10° 10:48:56 10° 24° (NNE) 2,368 6.3 -26.1°
Maximum altitude 10:54:02 52° 101° (E) 984 4.3 -25.1°
Drops below altitude 10° 10:59:05 10° 177° (S) 2,352 6.0 -24.2°
Sets 11:01:27 0° 182° (S) 3,278 6.7 -23.7°
